[[{"header":{"parameterUnit":"m.s-1","parameterCategory":2,"la1":30.2991,"la2":30.254,"lo1":-89.0895,"lo2":-89.0444,"dy":0.0017,"dx":0.0017,"nx":28,"ny":28,"refTime":"2025-03-11T21:00:00:Z","depth":"0","parameterNumber":2,"parameterNumberName":"U-component_of_CURRENTS"},"data":[0,0,0,0,0,0,0,0,0,0,0,0,0,0,0,0,0,0,0,0,0,0,0,0,0,0,0,0,0,0,0,0,0,0,0,0,0,0,0,0,0,0,0,0,0,0,0,0,0,0,0,0,0,0,0,0,0,0,0.3562,0.3563,0,0.3602,0.3602,0.3602,0.3589,0.3588,0.3588,0.3588,0.3513,0.3511,0.3509,0,0,0,0,0,0,0,0,0,0,0,0,0,0.3593,0.3592,0.3562,0.3563,0.3564,0.3602,0.3602,0.3602,0.3589,0.3588,0.3588,0.3588,0.3513,0.3511,0.3509,0,0,0,0,0,0,0,0,0,0,0,0,0,0.3594,0.3591,0.3561,0.3567,0.3569,0.3602,0.3602,0.3602,0.3589,0.3588,0.3588,0.3588,0.3514,0.3511,0.3509,0.3498,0,0,0.35,0.3499,0,0,0,0,0,0,0,0,0.3594,0.3592,0.3565,0.3567,0.3569,0.3597,0.3586,0.3564,0.3589,0.3573,0.3588,0.3588,0.3535,0.353,0.353,0.3494,0.3491,0.35,0.3498,0.3497,0.3496,0,0,0,0,0,0,0,0.3594,0.3591,0.357,0.3567,0.3569,0.361,0.3608,0.3582,0.3547,0.3575,0.3576,0.3592,0.3534,0.3533,0.3528,0.349,0.35,0.3498,0.3496,0.3495,0.3468,0.3469,0,0,0,0,0,0,0.3597,0.359,0.3569,0.3572,0.3589,0.361,0.3607,0.3582,0.355,0.3548,0.3592,0.3591,0.3537,0.3531,0.3525,0.3533,0.3497,0.3495,0.3493,0.3467,0.3468,0.3469,0,0,0,0,0,0,0.3597,0.3593,0.3567,0.3591,0.3591,0.3609,0.3582,0.3583,0.3588,0.3566,0.356,0.3597,0.3537,0.3529,0.3513,0.3529,0.3493,0.3491,0.3466,0.3467,0.3469,0.3533,0,0,0,0,0,0,0.3597,0.3591,0.3581,0.3589,0.359,0.3583,0.3583,0.3584,0.3602,0.3601,0.3568,0.3561,0.3536,0.3518,0.3511,0.3524,0.3489,0.3465,0.3466,0.3468,0.353,0.3537,0.3542,0,0,0,0,0,0.3597,0.3568,0.3578,0.3578,0.357,0.3584,0.3587,0.3596,0.3602,0.3599,0.3589,0.3562,0.3524,0.3516,0.3508,0.3521,0.3464,0.3466,0.3468,0.3527,0.3535,0.3542,0,0,0,0,0,0,0.3536,0.3565,0.3576,0.3546,0.357,0.3584,0.3582,0.3603,0.3595,0.3586,0.3569,0.356,0.3561,0.3529,0.3522,0.352,0.3491,0.3492,0.3539,0.3546,0.3553,0.3551,0.3486,0,0,0,0,0,0.3531,0.3531,0.356,0.3533,0.3545,0.3571,0.3582,0.3591,0.3591,0.3588,0.3583,0.3567,0.3563,0.3545,0.3535,0.352,0.3515,0.3525,0.3531,0.3537,0.3531,0.3566,0.3575,0.3476,0.3476,0.3476,0,0,0.35,0.3516,0.3514,0.3527,0.3538,0.356,0.3572,0.3579,0.3602,0.3578,0.3594,0.3593,0.3569,0.3568,0.3563,0.3539,0.3562,0.3539,0.3544,0.3535,0.3569,0.3579,0.3587,0.3477,0.3477,0.3477,0,0,0.3444,0.345,0.3443,0.3477,0.3514,0.354,0.3549,0.358,0.3594,0.3611,0.3616,0.3625,0.3604,0.3605,0.3597,0.3627,0.3606,0.3624,0.3636,0.3671,0.368,0.3687,0.3691,0.3698,0.3612,0.3612,0.3612,0,0.3406,0.3399,0.3441,0.3456,0.3481,0.3536,0.3539,0.3575,0.3604,0.3616,0.3615,0.3635,0.3622,0.3635,0.3652,0.3642,0.3648,0.3611,0.368,0.3688,0.3694,0.3696,0.3704,0.3615,0.3615,0.3615,0.3614,0,0.3369,0.3373,0.3367,0.3416,0.3448,0.3455,0.3524,0.3557,0.359,0.3628,0.3659,0.3664,0.3669,0.3681,0.3671,0.3714,0.37,0.37,0.3664,0.3708,0.3707,0.3714,0.362,0.3619,0.3618,0.3617,0,0,0.3256,0.3325,0.3327,0.3353,0.3428,0.3448,0.3495,0.3547,0.3587,0.363,0.3669,0.3689,0.3711,0.3705,0.3715,0.3743,0.3803,0.374,0.374,0.3746,0.3865,0.3637,0.3622,0.3823,0.3825,0.3826,0.3844,0,0.321,0.3226,0.3277,0.3308,0.3326,0.3404,0.3452,0.3518,0.3574,0.364,0.3675,0.3716,0.3718,0.3729,0.3764,0.3808,0.3824,0.3797,0.3816,0.3816,0.3611,0.3622,0.3425,0.3405,0.385,0.3852,0.3852,0,0.3174,0.319,0.3198,0.3273,0.3286,0.332,0.3407,0.3458,0.3567,0.3611,0.3665,0.3714,0.3774,0.3772,0.3847,0.3834,0.3846,0.3869,0.3871,0.3635,0.3599,0.3432,0.3399,0.3322,0.3862,0.3861,0.386,0,0.3114,0.3147,0.315,0.3178,0.3266,0.328,0.333,0.3435,0.3485,0.36,0.364,0.373,0.3759,0.3823,0.3839,0.3869,0.39,0.3947,0.3746,0.3731,0.3548,0.3511,0.3437,0.3982,0.3982,0.3982,0.3982,0,0.3079,0.3085,0.3121,0.314,0.3154,0.323,0.3274,0.3349,0.3451,0.3499,0.3617,0.365,0.3776,0.38,0.3845,0.3773,0.3894,0.3734,0.3714,0.356,0.3525,0.3434,0.3431,0.3983,0.3982,0.3982,0.3982,0,0.304,0.3063,0.3076,0.3126,0.3136,0.3154,0.3234,0.3273,0.3376,0.3441,0.3473,0.3601,0.3625,0.3685,0.3763,0.3721,0.3585,0.3652,0.3429,0.3379,0.311,0.3117,0.2876,0.2819,0.3475,0.3469,0.3465,0,0.302,0.3022,0.3053,0.3046,0.3063,0.3092,0.3114,0.3226,0.3265,0.3382,0.3399,0.3448,0.343,0.3426,0.3379,0.3354,0.3349,0.3145,0.3151,0.3031,0.3032,0.2953,0.2922,0.2964,0.2955,0.2949,0.2943,0,0.298,0.2994,0.3008,0.2981,0.2985,0.3003,0.3035,0.3053,0.3163,0.3198,0.3207,0.3196,0.3151,0.3004,0.2924,0.2918,0.2953,0.2995,0.2962,0.2667,0.2491,0.2446,0.3014,0.2881,0.2887,0.2892,0.2895,0.2898,0.2934,0.293,0.2927,0.2892,0.2894,0.287,0.2838,0.2867,0.2876,0.2841,0.2942,0.2817,0.2726,0.2579,0.2541,0.2348,0.2468,0.2305,0.2343,0.2289,0.2143,0.2518,0.2292,0.2295,0.2297,0.2299,0.2301,0,0.2829,0.2828,0.2818,0.2767,0.2706,0.2752,0.2739,0.2664,0.2575,0.2556,0.2495,0.2295,0.2107,0.206,0.1859,0.1735,0.1734,0.1711,0.1639,0.1668,0.2082,0.1967,0.1546,0.1546,0.1546,0.1546,0.1546,0.1546,0.2776,0.2724,0.2715,0.2569,0.2525,0.241,0.2367,0.2268,0.2211,0.1981,0.1819,0.1767,0.1715,0.152,0.1352,0.1342,0.1319,0.1138,0.1269,0.1642,0.1705,0.1764,0.1656,0.1176,0.1176,0.0765,0.0762,0.0759]},{"header":{"parameterUnit":"m.s-1","parameterCategory":2,"la1":30.2991,"la2":30.254,"lo1":-89.0895,"lo2":-89.0444,"dy":0.0017,"dx":0.0017,"nx":28,"ny":28,"refTime":"2025-03-11T21:00:00:Z","depth":"0","parameterNumber":3,"parameterNumberName":"V-component_of_CURRENTS"},"data":[0,0,0,0,0,0,0,0,0,0,0,0,0,0,0,0,0,0,0,0,0,0,0,0,0,0,0,0,0,0,0,0,0,0,0,0,0,0,0,0,0,0,0,0,0,0,0,0,0,0,0,0,0,0,0,0,0,0,-0.0063,-0.0063,0,-0.0023,-0.0023,-0.0022,0.002,0.0021,0.0021,0.0021,0.0077,0.0078,0.0079,0,0,0,0,0,0,0,0,0,0,0,0,0,-0.0081,-0.0081,-0.0063,-0.0063,-0.0063,-0.0023,-0.0023,-0.0022,0.002,0.0021,0.0021,0.0022,0.0077,0.0078,0.008,0,0,0,0,0,0,0,0,0,0,0,0,0,-0.0059,-0.0081,-0.0063,-0.0038,-0.0036,-0.0024,-0.0023,-0.0022,0.002,0.0021,0.0021,0.0022,0.0077,0.0078,0.008,0.0077,0,0,0.0085,0.0085,0,0,0,0,0,0,0,0,-0.006,-0.0058,-0.0042,-0.004,-0.0037,-0.0007,-0.0008,0.0011,0.002,0.0001,0.0021,0.0022,0.0049,0.0053,0.0061,0.0079,0.0082,0.0085,0.0086,0.0087,0.0087,0,0,0,0,0,0,0,-0.0062,-0.0059,-0.0046,-0.0042,-0.0039,-0.0021,-0.0018,-0.0004,0.0022,0.0002,0.0005,0.0007,0.0051,0.0059,0.0063,0.0083,0.0085,0.0086,0.0087,0.0088,0.0114,0.0114,0,0,0,0,0,0,-0.0072,-0.0061,-0.0047,-0.0045,-0.0049,-0.0022,-0.0017,-0.0016,0.0022,0.0028,0.0006,0.0008,0.0056,0.0061,0.0065,0.0078,0.0087,0.0088,0.0089,0.0114,0.0114,0.0114,0,0,0,0,0,0,-0.0073,-0.0071,-0.0049,-0.0053,-0.0049,-0.0023,-0.0021,-0.0016,-0.0007,0.0024,0.0031,0.0008,0.0057,0.0063,0.0071,0.008,0.0089,0.009,0.0115,0.0114,0.0114,0.0095,0,0,0,0,0,0,-0.0073,-0.0072,-0.0076,-0.0054,-0.005,-0.0044,-0.0022,-0.0016,-0.0008,-0.0005,0.0028,0.0034,0.0058,0.0069,0.0073,0.0083,0.0092,0.0115,0.0114,0.0114,0.0096,0.0094,0.0093,0,0,0,0,0,-0.0074,-0.0072,-0.0076,-0.0074,-0.0055,-0.0044,-0.004,-0.0017,-0.0009,-0.0007,0.0011,0.0033,0.0069,0.0069,0.0074,0.0085,0.0115,0.0115,0.0114,0.0097,0.0095,0.0093,0,0,0,0,0,0,-0.0074,-0.0068,-0.0071,-0.0066,-0.0062,-0.0038,-0.003,-0.0024,-0.0008,-0.0001,0.0025,0.0032,0.0043,0.006,0.006,0.009,0.0098,0.0098,0.0083,0.0081,0.0079,0.0115,0.0093,0,0,0,0,0,-0.0081,-0.0081,-0.0076,-0.0073,-0.0071,-0.0056,-0.005,-0.0037,-0.0021,-0.0013,0.0004,0.0025,0.0044,0.0058,0.0073,0.0086,0.0119,0.0097,0.0095,0.0094,0.0125,0.0168,0.0174,0.0111,0.0111,0.0111,0,0,-0.0081,-0.0077,-0.0078,-0.0075,-0.0065,-0.0048,-0.0049,-0.0037,-0.002,-0.001,0.0013,0.0014,0.0042,0.0059,0.0067,0.0077,0.0122,0.0093,0.0092,0.0125,0.0168,0.0174,0.018,0.0111,0.0111,0.0111,0,0,-0.0062,-0.0078,-0.0064,-0.0062,-0.0054,-0.0047,-0.0048,-0.0035,-0.0026,-0.0017,-0.0002,0.0006,0.0026,0.0055,0.0073,0.0069,0.0104,0.0064,0.0095,0.0135,0.0141,0.0147,0.0172,0.0181,0.0072,0.0072,0.0072,0,-0.0057,-0.0041,-0.0059,-0.0041,-0.0027,-0.0046,-0.0016,-0.0017,-0.0005,0.0013,-0.001,0.0037,0.0035,0.0092,0.0079,0.007,0.0092,0.01,0.0135,0.0141,0.0148,0.0173,0.0182,0.0071,0.0071,0.0071,0.0071,0,-0.0023,-0.0012,-0.0002,0.0014,0.002,0.0037,0.0035,0.0035,0.003,0.004,0.0069,0.0065,0.0106,0.0088,0.0079,0.0127,0.0125,0.0119,0.0144,0.0154,0.0178,0.0188,0.0069,0.007,0.007,0.007,0,0,0.001,0.0022,0.0029,0.0053,0.0055,0.0073,0.0084,0.011,0.0148,0.0124,0.019,0.0169,0.0166,0.0185,0.0174,0.0193,0.0217,0.017,0.0173,0.0203,0.0299,0.0278,0.0287,0.0216,0.0218,0.022,0.0289,0,0.0053,0.0103,0.0097,0.0149,0.0176,0.0162,0.0184,0.0197,0.0203,0.0248,0.0241,0.0286,0.0206,0.0231,0.023,0.0238,0.0249,0.02,0.0281,0.0284,0.0271,0.0301,0.0308,0.037,0.0299,0.0301,0.0302,0,0.01,0.013,0.0187,0.0232,0.0246,0.0267,0.032,0.034,0.0375,0.0387,0.0415,0.0413,0.044,0.0369,0.0387,0.0359,0.0328,0.0316,0.0319,0.0325,0.0284,0.0354,0.0392,0.0369,0.0319,0.0317,0.0316,0,0.0149,0.02,0.0252,0.0264,0.0301,0.0329,0.0354,0.0386,0.0435,0.0493,0.0547,0.0558,0.0599,0.0563,0.0495,0.0455,0.052,0.047,0.0425,0.0422,0.0463,0.0461,0.0504,0.0492,0.0492,0.0492,0.0491,0,0.0202,0.025,0.0278,0.0307,0.0384,0.0387,0.0475,0.0497,0.0567,0.0658,0.063,0.0713,0.0649,0.066,0.0571,0.0539,0.0581,0.0456,0.0453,0.0451,0.0447,0.0455,0.0424,0.0494,0.0494,0.0493,0.0493,0,0.0253,0.0264,0.0333,0.0383,0.0406,0.0463,0.0553,0.0621,0.0668,0.0795,0.0826,0.0862,0.0874,0.0796,0.0767,0.0662,0.061,0.059,0.0581,0.0574,0.0488,0.0455,0.0532,0.0526,0.0568,0.0568,0.0568,0,0.0286,0.0322,0.0394,0.0441,0.0468,0.0549,0.0609,0.0668,0.0751,0.0889,0.0966,0.1017,0.1057,0.0996,0.0846,0.0729,0.066,0.0638,0.0556,0.0513,0.0474,0.0461,0.0449,0.0594,0.0594,0.0594,0.0595,0,0.0361,0.0379,0.0433,0.0521,0.059,0.0678,0.077,0.085,0.094,0.1047,0.1182,0.123,0.1175,0.108,0.0907,0.0798,0.0634,0.0638,0.0618,0.0529,0.0501,0.0483,0.0503,0.0597,0.0597,0.0596,0.0596,0.0596,0.0421,0.0471,0.053,0.0616,0.0695,0.0794,0.0877,0.0985,0.1123,0.1276,0.1315,0.139,0.1261,0.1035,0.0905,0.0677,0.0665,0.0586,0.0559,0.0558,0.0531,0.0543,0.0608,0.0608,0.0608,0.0608,0.0608,0,0.0493,0.0543,0.0626,0.0719,0.0806,0.0833,0.0978,0.1064,0.1226,0.1348,0.1448,0.1423,0.1263,0.1064,0.0773,0.0629,0.0574,0.055,0.0545,0.0541,0.0585,0.0562,0.0592,0.0592,0.0592,0.0592,0.0592,0.0592,0.0536,0.0616,0.0649,0.079,0.0858,0.0977,0.1058,0.1189,0.1298,0.1427,0.1465,0.1485,0.1371,0.095,0.068,0.0598,0.0533,0.0499,0.0476,0.0498,0.0499,0.0501,0.0474,0.0485,0.0485,0.0459,0.0458,0.0458]}],[{"header":{"parameterUnit":"m.s-1","parameterCategory":2,"la1":30.2991,"la2":30.254,"lo1":-89.0895,"lo2":-89.0444,"dy":0.0017,"dx":0.0017,"nx":28,"ny":28,"refTime":"2025-03-11T21:00:00:Z","depth":"2","parameterNumber":2,"parameterNumberName":"U-component_of_CURRENTS"},"data":[0,0,0,0,0,0,0,0,0,0,0,0,0,0,0,0,0,0,0,0,0,0,0,0,0,0,0,0,0,0,0,0,0,0,0,0,0,0,0,0,0,0,0,0,0,0,0,0,0,0,0,0,0,0,0,0,0,0,0.2147,0.2145,0,0.2087,0.2088,0.2088,0.2174,0.2175,0.2176,0.2178,0.2177,0.2175,0.2174,0,0,0,0,0,0,0,0,0,0,0,0,0,0.2282,0.2281,0.2147,0.2145,0.2142,0.2087,0.2088,0.2089,0.2174,0.2175,0.2177,0.2178,0.2177,0.2176,0.2174,0,0,0,0,0,0,0,0,0,0,0,0,0,0.2241,0.2281,0.2148,0.2164,0.2164,0.2086,0.2088,0.2089,0.2173,0.2175,0.2177,0.2179,0.2177,0.2176,0.2174,0.2123,0,0,0.2168,0.2167,0,0,0,0,0,0,0,0,0.2243,0.2238,0.2164,0.2163,0.2162,0.2123,0.2134,0.2097,0.2173,0.2189,0.2178,0.218,0.215,0.2151,0.2161,0.2123,0.2123,0.2168,0.2167,0.2166,0.2165,0,0,0,0,0,0,0,0.2246,0.2241,0.2143,0.2161,0.2159,0.2154,0.2154,0.2128,0.2175,0.2188,0.2189,0.2152,0.2153,0.2163,0.2162,0.2123,0.2168,0.2166,0.2165,0.2164,0.2191,0.2193,0,0,0,0,0,0,0.2216,0.2243,0.2144,0.2139,0.2187,0.2149,0.2149,0.2149,0.2174,0.2174,0.215,0.2156,0.2165,0.2164,0.2162,0.2212,0.2166,0.2164,0.2163,0.219,0.2192,0.2194,0,0,0,0,0,0,0.222,0.2209,0.2146,0.2173,0.2162,0.2143,0.2143,0.2146,0.2181,0.2142,0.2147,0.2183,0.2167,0.2164,0.2181,0.2208,0.2163,0.2162,0.2188,0.219,0.2193,0.2241,0,0,0,0,0,0,0.2225,0.2212,0.2198,0.2172,0.2158,0.2136,0.214,0.2143,0.2144,0.2153,0.2169,0.2171,0.2168,0.2184,0.2179,0.2205,0.216,0.2185,0.2189,0.2192,0.2237,0.2245,0.2252,0,0,0,0,0,0.2231,0.2199,0.22,0.2185,0.2143,0.2135,0.2133,0.2136,0.2144,0.2176,0.2187,0.2172,0.2203,0.2183,0.2177,0.2203,0.2183,0.2188,0.2192,0.2234,0.2243,0.2252,0,0,0,0,0,0,0.224,0.2201,0.2203,0.2159,0.2162,0.2144,0.2145,0.2144,0.2176,0.2192,0.2178,0.218,0.2209,0.2198,0.2176,0.2226,0.2196,0.22,0.2231,0.2239,0.2247,0.2298,0.2159,0,0,0,0,0,0.223,0.2214,0.2188,0.216,0.2169,0.2166,0.2155,0.2168,0.2174,0.2194,0.2192,0.2203,0.2214,0.2222,0.2227,0.2236,0.2242,0.2257,0.2264,0.227,0.2311,0.2333,0.2346,0.2207,0.2207,0.2207,0,0,0.2223,0.2193,0.2184,0.2161,0.2174,0.219,0.2175,0.2184,0.22,0.2181,0.2218,0.222,0.2222,0.2252,0.2264,0.225,0.231,0.2276,0.2281,0.2319,0.2338,0.2352,0.2364,0.221,0.221,0.2209,0,0,0.2195,0.2195,0.218,0.2193,0.2189,0.2205,0.2213,0.222,0.2244,0.2256,0.2261,0.2287,0.2282,0.2307,0.2312,0.2359,0.2345,0.236,0.2438,0.2457,0.2469,0.2479,0.2486,0.2496,0.2367,0.2367,0.2367,0,0.2173,0.2169,0.2176,0.2177,0.218,0.2221,0.2234,0.2265,0.227,0.2274,0.2283,0.2321,0.2314,0.2365,0.2404,0.2376,0.2388,0.2396,0.2466,0.2477,0.2487,0.2491,0.2502,0.237,0.237,0.2369,0.2369,0,0.216,0.2159,0.2166,0.2195,0.2208,0.2237,0.2269,0.23,0.2323,0.233,0.2382,0.2405,0.2427,0.2437,0.244,0.2515,0.25,0.2466,0.244,0.2503,0.2504,0.2514,0.2374,0.2373,0.2372,0.2371,0,0,0.2102,0.2144,0.2148,0.2167,0.2227,0.2236,0.2288,0.2327,0.2369,0.24,0.2434,0.2495,0.2518,0.2533,0.2549,0.2601,0.2667,0.2587,0.2587,0.259,0.2717,0.2536,0.2529,0.2648,0.265,0.2653,0.2682,0,0.2097,0.2101,0.2126,0.2165,0.219,0.2246,0.2291,0.2329,0.2388,0.2437,0.2481,0.2536,0.2551,0.2589,0.264,0.2662,0.2703,0.2663,0.2663,0.2663,0.249,0.2538,0.2333,0.2329,0.2692,0.2694,0.2695,0,0.2075,0.2086,0.2114,0.2159,0.2179,0.2215,0.2307,0.235,0.2434,0.2476,0.2551,0.2587,0.2677,0.2678,0.2771,0.275,0.2755,0.2776,0.2775,0.2607,0.2502,0.233,0.2334,0.2713,0.2711,0.271,0.2709,0,0.204,0.2067,0.2094,0.2117,0.2189,0.221,0.2259,0.2353,0.24,0.2521,0.2556,0.2666,0.2705,0.277,0.279,0.2799,0.2868,0.285,0.2696,0.2682,0.251,0.2475,0.2918,0.2918,0.2918,0.2917,0.2917,0,0.2016,0.2033,0.2084,0.211,0.2143,0.2195,0.2272,0.2335,0.2438,0.2483,0.2582,0.263,0.2739,0.2765,0.2805,0.2764,0.2856,0.2734,0.2686,0.2516,0.2483,0.2821,0.2809,0.2919,0.2918,0.2918,0.2918,0,0.1965,0.2012,0.2037,0.2109,0.2131,0.2152,0.2248,0.2297,0.2414,0.2477,0.2508,0.2603,0.2631,0.2689,0.2767,0.2733,0.2744,0.2696,0.248,0.2404,0.2555,0.2546,0.2564,0.2558,0.2553,0.2549,0.2545,0,0.1934,0.1952,0.2021,0.2041,0.2078,0.213,0.2163,0.2273,0.2324,0.2439,0.2436,0.2489,0.2477,0.2495,0.2468,0.2465,0.2583,0.2267,0.224,0.2572,0.2524,0.2523,0.2521,0.204,0.2033,0.2027,0.2022,0,0.1885,0.1926,0.1959,0.1992,0.2022,0.2046,0.2101,0.2121,0.2233,0.2266,0.2274,0.2274,0.226,0.2136,0.211,0.2097,0.2255,0.2137,0.2553,0.2133,0.2072,0.2026,0.2043,0.1968,0.1973,0.1977,0.198,0.1982,0.1857,0.1847,0.1901,0.1913,0.1949,0.1937,0.1912,0.1956,0.1962,0.1967,0.2048,0.1974,0.1984,0.181,0.174,0.1692,0.1866,0.1824,0.1847,0.1875,0.1781,0.171,0.1522,0.1525,0.1527,0.1529,0.1531,0,0.1776,0.1786,0.1808,0.1817,0.18,0.1852,0.1845,0.1786,0.1712,0.1741,0.1724,0.1543,0.1428,0.1444,0.1269,0.1251,0.1297,0.1215,0.1276,0.1328,0.1375,0.126,0.0862,0.086,0.0858,0.0857,0,0,0.175,0.1713,0.1702,0.165,0.1663,0.1578,0.1533,0.1464,0.1449,0.1349,0.1297,0.1384,0.1399,0.1126,0.1071,0.0934,0.114,0.0896,0.143,0.1555,0.16,0.1714,0.1591,0,0,0,0,0]},{"header":{"parameterUnit":"m.s-1","parameterCategory":2,"la1":30.2991,"la2":30.254,"lo1":-89.0895,"lo2":-89.0444,"dy":0.0017,"dx":0.0017,"nx":28,"ny":28,"refTime":"2025-03-11T21:00:00:Z","depth":"2","parameterNumber":3,"parameterNumberName":"V-component_of_CURRENTS"},"data":[0,0,0,0,0,0,0,0,0,0,0,0,0,0,0,0,0,0,0,0,0,0,0,0,0,0,0,0,0,0,0,0,0,0,0,0,0,0,0,0,0,0,0,0,0,0,0,0,0,0,0,0,0,0,0,0,0,0,0.0181,0.0182,0,0.0206,0.0206,0.0206,0.0181,0.018,0.018,0.018,0.0154,0.0154,0.0154,0,0,0,0,0,0,0,0,0,0,0,0,0,0.0148,0.0148,0.0181,0.0182,0.0183,0.0206,0.0206,0.0206,0.0181,0.018,0.018,0.0179,0.0154,0.0154,0.0153,0,0,0,0,0,0,0,0,0,0,0,0,0,0.016,0.0148,0.0181,0.0178,0.0178,0.0206,0.0206,0.0206,0.0181,0.018,0.018,0.0179,0.0154,0.0154,0.0153,0.0162,0,0,0.0152,0.0152,0,0,0,0,0,0,0,0,0.0159,0.0161,0.0177,0.0178,0.0179,0.0196,0.0186,0.0191,0.0181,0.0173,0.018,0.0179,0.0168,0.0166,0.0164,0.0161,0.016,0.0152,0.0152,0.0151,0.0151,0,0,0,0,0,0,0,0.0159,0.016,0.0184,0.0178,0.0179,0.0189,0.0189,0.0186,0.0167,0.0174,0.0174,0.0187,0.0167,0.0164,0.0163,0.016,0.0152,0.0152,0.0151,0.0151,0.0152,0.0152,0,0,0,0,0,0,0.0167,0.0159,0.0184,0.0186,0.0175,0.019,0.019,0.0185,0.0169,0.0168,0.0188,0.0186,0.0165,0.0164,0.0162,0.017,0.0151,0.0151,0.0151,0.0152,0.0152,0.0152,0,0,0,0,0,0,0.0166,0.0168,0.0183,0.0179,0.0182,0.0192,0.0187,0.0186,0.018,0.0181,0.0177,0.0182,0.0165,0.0163,0.0157,0.0169,0.0151,0.015,0.0151,0.0152,0.0152,0.0188,0,0,0,0,0,0,0.0165,0.0167,0.0164,0.0179,0.0183,0.0199,0.0188,0.0188,0.0193,0.0191,0.0176,0.0173,0.0164,0.0158,0.0157,0.0168,0.015,0.0151,0.0152,0.0152,0.0186,0.019,0.0192,0,0,0,0,0,0.0163,0.0169,0.0163,0.0167,0.0178,0.02,0.0202,0.0203,0.0193,0.0193,0.0182,0.0173,0.0161,0.0158,0.0156,0.0168,0.0151,0.0151,0.0152,0.0185,0.0189,0.0192,0,0,0,0,0,0,0.0148,0.0169,0.0162,0.0171,0.0183,0.0198,0.0202,0.0203,0.0194,0.0188,0.0177,0.0173,0.0172,0.0165,0.0162,0.0169,0.0155,0.0155,0.018,0.0184,0.0187,0.0191,0.015,0,0,0,0,0,0.0146,0.0156,0.0172,0.0178,0.0181,0.0188,0.0196,0.0199,0.0201,0.0195,0.0185,0.0176,0.0176,0.0174,0.0167,0.0174,0.0168,0.018,0.0183,0.0185,0.0187,0.0196,0.02,0.0155,0.0155,0.0155,0,0,0.0141,0.0157,0.016,0.0177,0.0179,0.0197,0.0188,0.0203,0.022,0.0195,0.0198,0.0183,0.0178,0.0183,0.0182,0.0178,0.0194,0.0186,0.0189,0.0189,0.0197,0.0201,0.0205,0.0155,0.0155,0.0155,0,0,0.0156,0.0146,0.0164,0.0177,0.0197,0.0203,0.0207,0.0217,0.0217,0.0224,0.0211,0.0206,0.0198,0.0202,0.0203,0.0219,0.0206,0.0214,0.0237,0.0246,0.025,0.0253,0.0247,0.025,0.022,0.022,0.022,0,0.0156,0.0174,0.0172,0.0197,0.0216,0.0206,0.0231,0.0233,0.0242,0.0256,0.0226,0.0228,0.0212,0.024,0.0233,0.0228,0.0222,0.0226,0.0251,0.0254,0.0257,0.025,0.0252,0.0222,0.0221,0.0221,0.0221,0,0.0186,0.0201,0.0212,0.0236,0.0251,0.0271,0.0281,0.0289,0.0282,0.029,0.0302,0.0274,0.0281,0.0271,0.025,0.0271,0.0256,0.0251,0.0244,0.0264,0.0255,0.0257,0.0224,0.0224,0.0223,0.0223,0,0,0.0196,0.0229,0.0234,0.0259,0.0277,0.03,0.0322,0.0354,0.0386,0.0363,0.0402,0.037,0.0352,0.035,0.0328,0.0319,0.0319,0.0287,0.0287,0.0285,0.0326,0.0305,0.0305,0.0319,0.032,0.032,0.031,0,0.0224,0.0279,0.0288,0.0338,0.0363,0.0371,0.0401,0.0428,0.0433,0.0462,0.0438,0.0454,0.0387,0.039,0.0369,0.0338,0.0326,0.0321,0.0304,0.0303,0.0285,0.0308,0.0311,0.0302,0.0312,0.0312,0.0312,0,0.0259,0.0293,0.0343,0.0406,0.0417,0.0445,0.0503,0.0534,0.0566,0.0571,0.0572,0.0552,0.0538,0.0475,0.0426,0.0425,0.0373,0.0336,0.0336,0.0306,0.0286,0.0284,0.0305,0.0315,0.0315,0.0315,0.0314,0,0.0283,0.0342,0.0385,0.0402,0.0457,0.0492,0.0526,0.0568,0.0614,0.0645,0.0672,0.0647,0.0642,0.0577,0.0478,0.0459,0.0419,0.0397,0.033,0.0328,0.0322,0.0318,0.0365,0.0365,0.0365,0.0365,0.0365,0,0.0325,0.0364,0.0401,0.0429,0.05,0.0526,0.0605,0.064,0.0695,0.0759,0.0728,0.0757,0.0663,0.0624,0.0524,0.0432,0.046,0.0337,0.0329,0.0333,0.033,0.0334,0.033,0.0364,0.0365,0.0365,0.0365,0,0.0355,0.0371,0.0431,0.0489,0.0514,0.0568,0.0663,0.0724,0.0762,0.0843,0.0858,0.0849,0.0792,0.0693,0.0595,0.0502,0.0416,0.0375,0.0374,0.0366,0.0304,0.0303,0.031,0.0309,0.0309,0.0308,0.0308,0,0.0377,0.0407,0.0476,0.0514,0.0544,0.0622,0.0685,0.0751,0.0816,0.0897,0.094,0.0917,0.0896,0.0747,0.0596,0.045,0.0415,0.0348,0.031,0.031,0.0301,0.03,0.03,0.0314,0.0314,0.0313,0.0313,0,0.0423,0.0439,0.0488,0.0563,0.0626,0.071,0.08,0.086,0.0942,0.0995,0.105,0.1042,0.0917,0.0773,0.058,0.0469,0.0372,0.0337,0.0362,0.0324,0.0312,0.0304,0.0304,0.0311,0.0311,0.0311,0.0311,0.0311,0.0453,0.0494,0.0547,0.0623,0.0693,0.0782,0.0851,0.0936,0.1027,0.1102,0.1105,0.108,0.0952,0.0689,0.0535,0.036,0.0362,0.0281,0.0283,0.0285,0.0284,0.0271,0.0262,0.0262,0.0262,0.0262,0.0262,0,0.049,0.0537,0.0607,0.069,0.0762,0.0798,0.0919,0.0972,0.1057,0.1115,0.1139,0.0989,0.0852,0.069,0.0446,0.0306,0.029,0.0239,0.0258,0.0261,0.0264,0.0262,0.0234,0.0234,0.0233,0.0233,0,0,0.0508,0.0574,0.0608,0.072,0.0782,0.0872,0.0933,0.1006,0.1061,0.1086,0.107,0.1062,0.089,0.0705,0.0523,0.0382,0.0346,0.034,0.0375,0.0423,0.0427,0.03,0.0302,0,0,0,0,0]}],[{"header":{"parameterUnit":"m.s-1","parameterCategory":2,"la1":30.2991,"la2":30.254,"lo1":-89.0895,"lo2":-89.0444,"dy":0.0017,"dx":0.0017,"nx":28,"ny":28,"refTime":"2025-03-11T21:00:00:Z","depth":"4","parameterNumber":2,"parameterNumberName":"U-component_of_CURRENTS"},"data":[0,0,0,0,0,0,0,0,0,0,0,0,0,0,0,0,0,0,0,0,0,0,0,0,0,0,0,0,0,0,0,0,0,0,0,0,0,0,0,0,0,0,0,0,0,0,0,0,0,0,0,0,0,0,0,0,0,0,0.0938,0.0938,0,0.0945,0.0945,0.0946,0.0989,0.099,0.0991,0.0992,0.1026,0.1026,0.1026,0,0,0,0,0,0,0,0,0,0,0,0,0,0.0942,0.0942,0.0938,0.0938,0.0938,0.0945,0.0945,0.0946,0.0989,0.099,0.0991,0.0992,0.1026,0.1026,0.1026,0,0,0,0,0,0,0,0,0,0,0,0,0,0.0946,0.0942,0.0938,0.0958,0.096,0.0945,0.0945,0.0946,0.0989,0.099,0.0992,0.0993,0.1026,0.1026,0.1026,0.1004,0,0,0.1027,0.1027,0,0,0,0,0,0,0,0,0.0946,0.0946,0.0955,0.0957,0.0959,0.0965,0.0959,0.0966,0.0989,0.0981,0.0992,0.0993,0.1005,0.1007,0.101,0.1006,0.1007,0.1027,0.1027,0.1027,0.1028,0,0,0,0,0,0,0,0.0946,0.0946,0.0944,0.0955,0.0957,0.0959,0.0962,0.096,0.0989,0.0982,0.0984,0.098,0.1007,0.1009,0.1011,0.1008,0.1027,0.1027,0.1028,0.1028,0.1083,0.1084,0,0,0,0,0,0,0.0938,0.0946,0.0944,0.0944,0.0952,0.0958,0.0961,0.0964,0.0989,0.0993,0.0979,0.0982,0.1008,0.1011,0.1012,0.1061,0.1027,0.1028,0.1028,0.1082,0.1083,0.1085,0,0,0,0,0,0,0.0939,0.0939,0.0943,0.0942,0.0943,0.0957,0.096,0.0964,0.099,0.0986,0.0991,0.1004,0.1009,0.1012,0.1028,0.1059,0.1028,0.1028,0.108,0.1082,0.1084,0.111,0,0,0,0,0,0,0.0939,0.0939,0.0951,0.0942,0.0942,0.0941,0.0958,0.0963,0.0982,0.0987,0.1008,0.1011,0.1011,0.1028,0.1028,0.1059,0.1028,0.1079,0.1081,0.1084,0.1107,0.1112,0.1117,0,0,0,0,0,0.0939,0.0942,0.0952,0.0952,0.0955,0.0941,0.0942,0.0958,0.0983,0.0988,0.1008,0.1012,0.1045,0.1028,0.1028,0.1061,0.1077,0.108,0.1083,0.1105,0.1111,0.1117,0,0,0,0,0,0,0.0949,0.0946,0.0957,0.0961,0.0956,0.0948,0.0954,0.0969,0.0989,0.1006,0.1013,0.1016,0.1051,0.1048,0.1029,0.1087,0.1068,0.1071,0.1085,0.109,0.1095,0.1101,0.1028,0,0,0,0,0,0.0955,0.0961,0.0954,0.0957,0.0956,0.0962,0.0965,0.0977,0.0985,0.0997,0.1015,0.1039,0.1058,0.1067,0.1082,0.1097,0.1109,0.1125,0.113,0.1133,0.1141,0.1194,0.1205,0.1095,0.1095,0.1095,0,0,0.0954,0.0958,0.0959,0.096,0.0961,0.0959,0.0968,0.0975,0.099,0.0995,0.1034,0.1055,0.1068,0.1095,0.1111,0.1098,0.1168,0.1137,0.114,0.1146,0.1199,0.1209,0.1219,0.1097,0.1096,0.1096,0,0,0.0951,0.0963,0.0967,0.0963,0.0967,0.0969,0.0976,0.0986,0.1011,0.1033,0.1058,0.1091,0.1114,0.1132,0.1142,0.1179,0.1195,0.12,0.1222,0.1274,0.1284,0.1292,0.1302,0.1312,0.1197,0.1197,0.1197,0,0.0955,0.0961,0.0964,0.0964,0.0964,0.0977,0.098,0.0996,0.1018,0.1047,0.1052,0.1124,0.113,0.1173,0.1192,0.1189,0.1216,0.1196,0.128,0.1289,0.1297,0.1306,0.1316,0.1199,0.1199,0.1199,0.1198,0,0.0949,0.0958,0.0955,0.0965,0.0968,0.0968,0.0982,0.1009,0.1045,0.1073,0.1138,0.1153,0.1204,0.1212,0.121,0.1281,0.1278,0.1283,0.1263,0.131,0.1316,0.1326,0.1201,0.1201,0.12,0.12,0,0,0.094,0.0952,0.0952,0.0962,0.0972,0.0972,0.1,0.1034,0.1077,0.1116,0.1177,0.1213,0.1256,0.1271,0.1288,0.1321,0.1387,0.1333,0.1335,0.1338,0.149,0.1365,0.1363,0.1422,0.1425,0.1427,0.1463,0,0.0936,0.0946,0.0953,0.0961,0.0965,0.0984,0.1013,0.1052,0.1098,0.1161,0.1205,0.127,0.127,0.1311,0.1349,0.1395,0.1419,0.1375,0.1449,0.1451,0.133,0.1373,0.1434,0.1471,0.1473,0.1475,0.1476,0,0.0918,0.0937,0.0952,0.0977,0.0983,0.1002,0.106,0.1086,0.1168,0.1212,0.1286,0.1333,0.1407,0.1393,0.1488,0.1473,0.1487,0.1498,0.15,0.1383,0.1345,0.142,0.1493,0.1492,0.1491,0.149,0.1488,0,0.0903,0.0924,0.0946,0.0949,0.0987,0.102,0.1052,0.1122,0.1162,0.1264,0.1313,0.1408,0.1468,0.1522,0.1554,0.1547,0.1635,0.1624,0.151,0.1501,0.159,0.1581,0.1675,0.1675,0.1674,0.1674,0.1674,0,0.0873,0.0886,0.0953,0.0959,0.101,0.1037,0.11,0.1145,0.1226,0.128,0.136,0.1407,0.1512,0.1568,0.1586,0.1578,0.1669,0.1519,0.1511,0.1596,0.1587,0.1595,0.1585,0.1676,0.1675,0.1675,0.1675,0,0.0823,0.0863,0.0894,0.0967,0.0999,0.1038,0.1118,0.1157,0.1242,0.1313,0.1352,0.1447,0.1517,0.1575,0.1651,0.1602,0.1611,0.1574,0.1645,0.1639,0.143,0.1421,0.1461,0.1457,0.1454,0.1451,0.1449,0,0.0789,0.0807,0.0898,0.0935,0.0974,0.1042,0.1084,0.1166,0.1199,0.1314,0.1336,0.1436,0.1487,0.1493,0.1555,0.1571,0.1543,0.1524,0.1485,0.1424,0.1413,0.141,0.1406,0.1444,0.1443,0.1442,0.1441,0,0.074,0.0787,0.0814,0.0895,0.0955,0.0996,0.1063,0.1086,0.1172,0.1265,0.1298,0.1326,0.1383,0.1425,0.1441,0.1446,0.1534,0.1489,0.1496,0.1459,0.1404,0.1395,0.1395,0.143,0.1431,0.1432,0.1433,0,0.0711,0.0721,0.0778,0.0836,0.0901,0.0927,0.0972,0.101,0.1055,0.1182,0.1191,0.1284,0.1376,0.1358,0.1377,0.1374,0.1348,0.1292,0.1308,0.1322,0.1256,0.1164,0.1115,0,0,0,0,0,0.0689,0.069,0.0721,0.077,0.082,0.0861,0.0938,0.098,0.108,0.1076,0.113,0.1174,0.1199,0.1238,0.1207,0.13,0.1347,0.1254,0.129,0.1366,0.1379,0.1313,0,0,0,0,0,0,0.0668,0.0696,0.0692,0.0694,0.0715,0.0756,0.0804,0.0873,0.087,0.0985,0.101,0.1089,0.1137,0.1214,0.1184,0.1195,0.1187,0.1313,0.1309,0.1358,0.137,0.1381,0.1318,0,0,0,0,0]},{"header":{"parameterUnit":"m.s-1","parameterCategory":2,"la1":30.2991,"la2":30.254,"lo1":-89.0895,"lo2":-89.0444,"dy":0.0017,"dx":0.0017,"nx":28,"ny":28,"refTime":"2025-03-11T21:00:00:Z","depth":"4","parameterNumber":3,"parameterNumberName":"V-component_of_CURRENTS"},"data":[0,0,0,0,0,0,0,0,0,0,0,0,0,0,0,0,0,0,0,0,0,0,0,0,0,0,0,0,0,0,0,0,0,0,0,0,0,0,0,0,0,0,0,0,0,0,0,0,0,0,0,0,0,0,0,0,0,0,0.0253,0.0253,0,0.0271,0.0271,0.0271,0.0253,0.0252,0.0252,0.0252,0.0214,0.0213,0.0213,0,0,0,0,0,0,0,0,0,0,0,0,0,0.0221,0.0221,0.0253,0.0253,0.0254,0.0271,0.0271,0.0271,0.0253,0.0252,0.0252,0.0251,0.0214,0.0213,0.0213,0,0,0,0,0,0,0,0,0,0,0,0,0,0.0234,0.0221,0.0253,0.0249,0.0249,0.0271,0.0271,0.0271,0.0253,0.0252,0.0252,0.0251,0.0214,0.0213,0.0213,0.0222,0,0,0.021,0.021,0,0,0,0,0,0,0,0,0.0233,0.0235,0.0249,0.0249,0.0249,0.0261,0.0246,0.0252,0.0253,0.0249,0.0252,0.0251,0.0226,0.0225,0.0227,0.0221,0.0219,0.021,0.021,0.0209,0.0209,0,0,0,0,0,0,0,0.0232,0.0234,0.0258,0.0249,0.025,0.0252,0.0252,0.0247,0.0239,0.0249,0.0249,0.0254,0.0226,0.0228,0.0226,0.0218,0.021,0.0209,0.0209,0.0209,0.0212,0.0213,0,0,0,0,0,0,0.0235,0.0233,0.0257,0.0258,0.0242,0.0253,0.0254,0.0256,0.024,0.0238,0.0255,0.0254,0.023,0.0227,0.0225,0.0241,0.0209,0.0208,0.0208,0.0212,0.0213,0.0213,0,0,0,0,0,0,0.0234,0.0236,0.0256,0.0248,0.0251,0.0254,0.0257,0.0257,0.0262,0.0246,0.0242,0.0261,0.0229,0.0226,0.0225,0.0239,0.0208,0.0207,0.0211,0.0212,0.0213,0.0269,0,0,0,0,0,0,0.0233,0.0236,0.024,0.0248,0.0252,0.0271,0.0258,0.0258,0.0267,0.0265,0.0249,0.0245,0.0228,0.0226,0.0224,0.0237,0.0207,0.021,0.0212,0.0213,0.0267,0.0272,0.0276,0,0,0,0,0,0.0231,0.0243,0.024,0.0244,0.0257,0.0271,0.0273,0.0272,0.0268,0.0273,0.0264,0.0246,0.0231,0.0227,0.0224,0.0237,0.021,0.0211,0.0212,0.0264,0.0271,0.0276,0,0,0,0,0,0,0.023,0.0243,0.024,0.0254,0.0262,0.0269,0.0278,0.0278,0.0277,0.0277,0.0256,0.0252,0.0255,0.0239,0.0234,0.024,0.0217,0.0217,0.0257,0.0263,0.0268,0.0269,0.0206,0,0,0,0,0,0.0233,0.0244,0.0253,0.0264,0.027,0.0275,0.0282,0.0284,0.0286,0.0285,0.0273,0.0263,0.0259,0.0256,0.0246,0.0254,0.0223,0.0258,0.0263,0.0268,0.0266,0.0231,0.0232,0.0218,0.0218,0.0218,0,0,0.0236,0.0245,0.0251,0.0265,0.0271,0.0287,0.0277,0.0293,0.0309,0.0281,0.0293,0.028,0.0264,0.0271,0.0271,0.026,0.0258,0.0269,0.0273,0.0269,0.0232,0.0233,0.0234,0.0218,0.0218,0.0218,0,0,0.025,0.0255,0.0269,0.028,0.0296,0.0302,0.0309,0.0319,0.0324,0.0339,0.032,0.0316,0.0312,0.0302,0.0298,0.0325,0.0284,0.0322,0.035,0.0316,0.0316,0.0317,0.0289,0.0286,0.0326,0.0326,0.0326,0,0.0253,0.027,0.0275,0.0293,0.0308,0.031,0.0332,0.0341,0.035,0.0354,0.0348,0.0339,0.0327,0.0332,0.0343,0.0336,0.0309,0.0331,0.0322,0.0321,0.032,0.0291,0.0288,0.0329,0.0329,0.0328,0.0328,0,0.0274,0.0292,0.0303,0.0326,0.0343,0.0363,0.0379,0.0391,0.0398,0.0401,0.0406,0.0391,0.0382,0.0382,0.0375,0.0369,0.035,0.0331,0.0307,0.0325,0.0294,0.0289,0.0333,0.0332,0.0331,0.033,0,0,0.0276,0.0311,0.0317,0.0335,0.0364,0.0383,0.0411,0.0432,0.0446,0.0448,0.0455,0.0457,0.0439,0.0433,0.0417,0.0395,0.0375,0.0367,0.0364,0.0339,0.03,0.03,0.0294,0.0352,0.0351,0.035,0.0283,0,0.0291,0.0331,0.0347,0.039,0.0411,0.0429,0.0454,0.0475,0.0483,0.0487,0.0474,0.0474,0.0463,0.0459,0.0436,0.0389,0.0363,0.0395,0.0285,0.0282,0.0279,0.0288,0.0348,0.0279,0.0278,0.0277,0.0276,0,0.0308,0.0334,0.0376,0.0423,0.0435,0.0463,0.0502,0.0526,0.0532,0.0535,0.0528,0.0508,0.049,0.0469,0.0399,0.0418,0.0366,0.0325,0.0321,0.0295,0.0272,0.0253,0.0266,0.0267,0.0268,0.0269,0.0269,0,0.0312,0.0359,0.0394,0.0411,0.0459,0.0486,0.0517,0.054,0.0564,0.0562,0.0565,0.0532,0.0519,0.0451,0.0385,0.0385,0.0292,0.0277,0.0225,0.0224,0.0218,0.0219,0.0213,0.0213,0.0213,0.0214,0.0214,0,0.0328,0.0358,0.04,0.0425,0.047,0.0502,0.0549,0.0569,0.0593,0.0615,0.059,0.0586,0.0512,0.0455,0.0383,0.0296,0.0289,0.0229,0.0206,0.0246,0.025,0.0215,0.0216,0.0211,0.0212,0.0212,0.0213,0,0.0333,0.0357,0.04,0.0455,0.0476,0.0511,0.0583,0.0612,0.063,0.0655,0.0656,0.0625,0.0556,0.0475,0.0362,0.0303,0.0211,0.0177,0.0233,0.0214,0.0165,0.017,0.0111,0.011,0.011,0.0109,0.0109,0,0.0336,0.0358,0.0421,0.0451,0.0482,0.0538,0.058,0.0627,0.0658,0.0677,0.0683,0.0635,0.0599,0.0442,0.0354,0.0216,0.0195,0.0142,0.0151,0.0171,0.0154,0.016,0.0165,0.0108,0.0108,0.0108,0.0108,0,0.0342,0.0363,0.0401,0.046,0.0512,0.0567,0.063,0.0654,0.07,0.0716,0.0698,0.063,0.0551,0.044,0.0338,0.0237,0.0175,0.0137,0.0137,0.0144,0.0167,0.0152,0.0158,0.0106,0.0106,0.0107,0.0107,0,0.0341,0.0363,0.0412,0.0467,0.0525,0.058,0.0617,0.0655,0.0687,0.0711,0.07,0.0625,0.0589,0.045,0.0353,0.0261,0.0233,0.0191,0.0188,0.0189,0.0235,0.0277,0.023,0,0,0,0,0,0.0336,0.0368,0.0417,0.0476,0.0534,0.057,0.0641,0.0672,0.0711,0.0701,0.0706,0.0634,0.0504,0.0448,0.0354,0.0336,0.0213,0.0221,0.0161,0.0097,0.0099,0.0141,0,0,0,0,0,0,0.0333,0.0377,0.0409,0.047,0.0511,0.0574,0.0619,0.0651,0.0646,0.0671,0.0603,0.0593,0.0466,0.0551,0.0344,0.0319,0.0264,0.017,0.0168,0.0096,0.0097,0.0099,0.0143,0,0,0,0,0]}]]